Flag for Paraguay Weather past 2 weeks in Asuncion, Paraguay

Now
82 °F

Clear.


Feels Like: 85 °F
Forecast: N/A
Wind: 7 mph from Northeast

Location: Asuncion / Aeropuerto

Current Time: Jul 31, 2014 at 6:02:10 PM

Latest Report: Jul 31, 2014 at 5:00 PM


Visibility: 10 mi

Pressure: 29.83 "Hg

Humidity: 62%

Dew point: 68 °F

Location of AsuncionLocation

Historic Weather in Asuncion — Graph

°F

Asuncion temperature yesterday

Maximum temperature yesterday: 72 °F (at 12:00 AM)
Minimum temperature yesterday: 68 °F (at 7:00 AM)
Average temperature yesterday: 70 °F

Past Weeks' High & Low Weather Summary

 TemperatureHumidityPressure
High86 °F (Jul 31, 1:00 PM)100% (Jul 19, 5:00 AM)30.36 "Hg (Jul 19, 5:00 AM)
Low39 °F (Jul 27, 2:00 AM)33% (Jul 18, 3:00 PM)29.68 "Hg (Jul 23, 12:00 PM)
Average63 °F75%30.07 "Hg
* Reported Jul 16 5:00 PM — Jul 31 5:00 PM, Asuncion, Weather by CustomWeather, © 2014

Note: Actual official high and low records may vary slightly from our data, if they occured in-between our weather recording intervals... More about our weather records

Advertising

Asuncion weather history for previous 24 hours

 ConditionsComfort  
Time TempWeatherWind HumidityBarometerVisibility
5:00 PM
Jul 31
82 °FClear.7 mph62%29.83 "Hg10 mi
4:00 PM84 °FSunny.9 mph58%29.86 "Hg10 mi
3:00 PM84 °FSunny.10 mph58%29.86 "Hg10 mi
2:00 PM86 °FSunny.14 mph55%29.86 "Hg10 mi
1:00 PM86 °FSunny.13 mph55%29.89 "Hg10 mi
12:00 PM84 °FSunny.13 mph58%29.92 "Hg10 mi
11:00 AM81 °FSunny.10 mph62%29.95 "Hg10 mi
10:00 AM77 °FSunny.10 mph69%29.98 "Hg10 mi
9:30 AM75 °FSunny.12 mph69%30.07 "Hg10 mi
9:00 AM75 °FSunny.12 mph65%29.95 "Hg10 mi
8:30 AM73 °FPassing clouds.12 mph74%29.95 "HgN/A
8:00 AM72 °FPassing clouds.8 mph73%29.95 "HgN/A
7:30 AM70 °FPassing clouds.9 mph78%29.95 "HgN/A
7:00 AM70 °FPassing clouds.8 mph78%29.95 "HgN/A
6:00 AM68 °FMild.7 mph83%29.92 "HgN/A
5:00 AM70 °FMild.6 mph78%29.92 "HgN/A
4:00 AM50 °FCool.9 mph100%29.92 "HgN/A
3:00 AM50 °FCool.9 mph100%N/AN/A
2:00 AM68 °FMild.9 mph78%29.95 "HgN/A
1:00 AM68 °FMild.8 mph78%29.95 "HgN/A
12:00 AM70 °FPassing clouds.9 mph73%29.98 "HgN/A
11:00 PM
Jul 30
70 °FPassing clouds.8 mph78%29.98 "HgN/A
9:00 PM70 °FPassing clouds.12 mph78%29.98 "HgN/A
8:00 PM68 °FThunderstorms. Passing clouds.8 mph83%30.01 "HgN/A
7:00 PM68 °FThunderstorms. Partly cloudy.9 mph83%30.01 "HgN/A
6:00 PM68 °FPartly cloudy.10 mph83%30.01 "HgN/A
Weather by CustomWeather, © 2014

See weather overviewHow to use our weather pages